Location: Unspecified
(49.2170°N, 0.0000°E)
Time: 14:51:32
(UTC+00:00)

Tiros 1 despin weight - Pass Details

Date: 27 January 2021
Orbit: 593 x 642 km, 48.2° (Epoch: 06 March)

Event Time Altitude Azimuth Distance (km) Brightness Sun altitude
Rises 16:01:18 0° 269° (W) 2,885 ? 5.7°
Reaches altitude 10° 16:03:37 10° 268° (W) 1,971 ? 5.4°
Maximum altitude 16:08:08 79° 184° (S) 621 ? 4.8°
Drops below altitude 10° 16:12:36 10° 97° (E) 1,942 ? 4.2°
Sets 16:14:53 0° 96° (E) 2,838 ? 3.9°
